Hourly Data Report for September 06, 2017

All times are specified in Local Standard Time (LST). Add 1 hour to adjust for Daylight Saving Time where and when it is observed.

GRISE FIORD CLIMATE
NUNAVUT

76°25'22.040" N
82°54'08.020" W
44.50 m
2402351
71971
NGC

Download Data

Hourly Data (September 2017)
Hourly Data Report for September 6, 2017
Temp Definition
°C
Dew Point Temp Definition
°C
Rel Hum Definition
%
Wind Dir Definition
10's deg

Wind Spd Definition
km/h
Visibility Definition
km
Stn Press Definition
kPa
Hmdx Definition


Wind Chill Definition


Weather Definition


TIME
00:00 -4.4 -5.5 92 23 11   100.64   -9 LegendNANA
01:00 -4.2 -5.3 92 22 11   100.61   -9 LegendNANA
02:00 -4.7 -5.5 94 25 17   100.59   -11 LegendNANA
03:00 -5.2 -6.1 94 26 11   100.58   -10 LegendNANA
04:00 -5.1 -5.8 95 13 2   100.54   -6 LegendNANA
05:00 -5.0 -5.7 95 6 4   100.51   -7 LegendNANA
06:00 -5.0 -5.6 95 23 3   100.49   -6 LegendNANA
07:00 -5.1 -6.3 92 34 2   100.47   -6 LegendNANA
08:00 -4.9 -6.6 88 20 6   100.46   -8 LegendNANA
09:00 -5.2 -7.5 84 12 3   100.42   -7 LegendNANA
10:00 -5.7 -9.5 75 3 4   100.41   -8 LegendNANA
11:00 -4.5 -8.4 74 8 2   100.39   -5 LegendNANA
12:00 -4.3 -8.6 72 9 4   100.39   -6 LegendNANA
13:00 -4.2 -7.9 75 23 4   100.39   -6 LegendNANA
14:00 -4.2 -7.6 77 25 10   100.40   -8 LegendNANA
15:00 -3.5 -9.5 63 28 5   100.43   -6 LegendNANA
16:00 -4.2 -7.4 78 8 3   100.44   -5 LegendNANA
17:00 -4.2 -7.0 81 10 3   100.46   -5 LegendNANA
18:00 -4.4 -6.3 87 0 1   100.44   -5 LegendNANA
19:00 -4.5 -5.8 91 4 6   100.44   -7 LegendNANA
20:00 -4.2 -5.6 90 0 1   100.44   -5 LegendNANA
21:00 -3.9 -5.4 90 19 3   100.44   -5 LegendNANA
22:00 -3.9 -5.8 87 18 2   100.43   -5 LegendNANA
23:00 -3.5 -6.1 82 25 10   100.43   -7 LegendNANA

Notes on Data Quality.

Legend

  • E = Estimated
  • M = Missing
  • NA = Not Available
  • ‡ = Partner data that is not subject to review by the National Climate Archives
Date modified: